QPF
0.00 0.00 0.00 0.00 0.00 0.00 0.00 0.00 0.00 0.00 0.00 0.00 0.00 0.00 0.00 0.00 0.00 0.00 0.00 0.00 0.00 0.00 0.01 0.01 0.01 0.01 0.03 0.02 0.02 0.02 0.01 0.01 0.02 0.02 0.00 0.00 0.01 0.01 0.01 0.02 0.02 0.03 0.02
0.00 0.00 0.00 0.00 0.00 0.00 0.00 0.00 0.00 0.00 0.00 0.00 0.00 0.00 0.00 0.00 0.00 0.00 0.00 0.00 0.00 0.00 0.00 0.01 0.01 0.02 0.03 0.02 0.02 0.02 0.02 0.05 0.14 0.12 0.03 0.01 0.01 0.02 0.01 0.02 0.02 0.01 0.01
0.00 0.00 0.00 0.00 0.00 0.00 0.00 0.00 0.00 0.00 0.00 0.00 0.00 0.00 0.00 0.00 0.00 0.00 0.00 0.00 0.00 0.00 0.00 0.01 0.02 0.04 0.03 0.01 0.02 0.03 0.08 0.18 0.19 0.12 0.03 0.01 0.03 0.04 0.06 0.07 0.05 0.04 0.02
0.00 0.00 0.00 0.00 0.00 0.00 0.00 0.00 0.00 0.00 0.00 0.00 0.00 0.00 0.00 0.00 0.00 0.00 0.00 0.00 0.01 0.03 0.05 0.05 0.03 0.03 0.08 0.15 0.24 0.27 0.24 0.12 0.05 0.03 0.02 0.03 0.03 0.03 0.03 0.06 0.09 0.10 0.10
0.00 0.00 0.00 0.00 0.00 0.00 0.00 0.00 0.00 0.00 0.00 0.00 0.00 0.00 0.00 0.01 0.00 0.00 0.00 0.01 0.01 0.03 0.05 0.07 0.10 0.18 0.19 0.14 0.10 0.05 0.03 0.03 0.05 0.05 0.04 0.04 0.04 0.04 0.03 0.03 0.03 0.03 0.05
0.00 0.00 0.00 0.00 0.00 0.00 0.00 0.00 0.00 0.00 0.00 0.00 0.00 0.00 0.00 0.00 0.00 0.00 0.00 0.01 0.01 0.03 0.07 0.10 0.11 0.13 0.07 0.08 0.06 0.05 0.03 0.01 0.01 0.01 0.01 0.01 0.01 0.02 0.03 0.03 0.03 0.04 0.06
0.00 0.00 0.00 0.00 0.00 0.00 0.00 0.00 0.00 0.00 0.00 0.00 0.00 0.00 0.00 0.00 0.01 0.01 0.02 0.02 0.05 0.08 0.07 0.06 0.05 0.06 0.08 0.03 0.04 0.02 0.00 0.00 0.00 0.00 0.00 0.00 0.01 0.02 0.02 0.03 0.03 0.04 0.04
0.00 0.00 0.00 0.00 0.00 0.00 0.00 0.00 0.00 0.00 0.00 0.00 0.00 0.01 0.01 0.02 0.03 0.02 0.03 0.02 0.02 0.04 0.04 0.04 0.03 0.03 0.02 0.02 0.00 0.00 0.00 0.00 0.00 0.00 0.00 0.01 0.02 0.02 0.03 0.04 0.04 0.04 0.02
0.00 0.00 0.00 0.00 0.00 0.00 0.00 0.00 0.00 0.01 0.01 0.01 0.02 0.03 0.03 0.04 0.06 0.04 0.03 0.01 0.02 0.03 0.02 0.02 0.01 0.01 0.01 0.00 0.00 0.00 0.00 0.00 0.00 0.00 0.00 0.01 0.01 0.02 0.02 0.03 0.04 0.05 0.03
0.00 0.00 0.00 0.00 0.00 0.00 0.00 0.00 0.01 0.01 0.02 0.03 0.04 0.04 0.05 0.03 0.06 0.04 0.03 0.01 0.02 0.01 0.00 0.00 0.02 0.00 0.00 0.00 0.00 0.00 0.00 0.00 0.00 0.00 0.00 0.00 0.00 0.00 0.01 0.02 0.02 0.04 0.05
0.00 0.00 0.00 0.00 0.00 0.00 0.01 0.01 0.02 0.03 0.03 0.03 0.02 0.02 0.02 0.02 0.04 0.04 0.02 0.01 0.00 0.00 0.00 0.00 0.00 0.00 0.00 0.00 0.00 0.00 0.00 0.00 0.00 0.00 0.00 0.00 0.00 0.01 0.02 0.02 0.02 0.03 0.03
0.00 0.00 0.00 0.00 0.00 0.02 0.02 0.03 0.03 0.03 0.02 0.02 0.02 0.01 0.01 0.01 0.01 0.00 0.00 0.00 0.00 0.00 0.00 0.00 0.00 0.00 0.00 0.00 0.00 0.00 0.00 0.00 0.00 0.00 0.00 0.01 0.01 0.00 0.00 0.00 0.00 0.00 0.00
0.00 0.01 0.01 0.00 0.01 0.02 0.03 0.02 0.03 0.02 0.01 0.01 0.00 0.00 0.00 0.00 0.00 0.00 0.00 0.00 0.00 0.00 0.00 0.00 0.00 0.00 0.00 0.00 0.00 0.00 0.01 0.00 0.00 0.00 0.00 0.00 0.00 0.00 0.00 0.00 0.00 0.00 0.00
0.01 0.01 0.02 0.02 0.01 0.00 0.01 0.00 0.00 0.00 0.00 0.00 0.00 0.00 0.00 0.00 0.00 0.00 0.00 0.00 0.00 0.00 0.00 0.00 0.00 0.00 0.00 0.00 0.00 0.00 0.01 0.00 0.00 0.00 0.00 0.00 0.00 0.00 0.00 0.00 0.00 0.00 0.00
0.01 0.01 0.01 0.01 0.01 0.00 0.00 0.01 0.01 0.01 0.00 0.01 0.00 0.00 0.00 0.00 0.00 0.00 0.00 0.00 0.00 0.00 0.00 0.00 0.00 0.00 0.00 0.00 0.00 0.00 0.00 0.00 0.00 0.00 0.00 0.00 0.00 0.00 0.00 0.00 0.00 0.00 0.00
0.01 0.01 0.01 0.00 0.00 0.00 0.01 0.02 0.02 0.01 0.00 0.00 0.00 0.00 0.00 0.00 0.00 0.00 0.00 0.00 0.00 0.00 0.00 0.00 0.00 0.00 0.00 0.00 0.00 0.00 0.00 0.00 0.00 0.00 0.00 0.00 0.00 0.00 0.00 0.00 0.00 0.01 0.01
0.01 0.01 0.02 0.03 0.05 0.06 0.06 0.05 0.03 0.01 0.00 0.00 0.00 0.00 0.00 0.00 0.00 0.00 0.00 0.00 0.00 0.00 0.00 0.00 0.00 0.00 0.00 0.00 0.00 0.00 0.00 0.00 0.00 0.00 0.00 0.00 0.00 0.00 0.01 0.00 0.00 0.01 0.01
0.17 0.22 0.22 0.19 0.12 0.06 0.02 0.00 0.00 0.00 0.00 0.00 0.00 0.00 0.00 0.00 0.00 0.00 0.00 0.00 0.00 0.00 0.00 0.00 0.00 0.00 0.00 0.00 0.00 0.00 0.00 0.00 0.00 0.00 0.00 0.00 0.00 0.00 0.00 0.00 0.00 0.01 0.00
0.27 0.19 0.10 0.04 0.01 0.00 0.00 0.00 0.00 0.00 0.00 0.00 0.00 0.00 0.00 0.00 0.00 0.00 0.00 0.00 0.00 0.00 0.00 0.00 0.00 0.00 0.00 0.00 0.00 0.00 0.00 0.00 0.00 0.00 0.00 0.00 0.00 0.01 0.01 0.00 0.00 0.00 0.01
0.03 0.00 0.00 0.00 0.00 0.00 0.00 0.00 0.00 0.00 0.00 0.00 0.00 0.00 0.00 0.00 0.00 0.00 0.00 0.00 0.00 0.00 0.00 0.00 0.00 0.00 0.00 0.00 0.00 0.00 0.00 0.00 0.00 0.00 0.00 0.00 0.01 0.00 0.00 0.01 0.01 0.01 0.01
0.00 0.00 0.00 0.00 0.00 0.00 0.00 0.00 0.00 0.00 0.00 0.00 0.00 0.00 0.00 0.00 0.00 0.00 0.00 0.00 0.00 0.00 0.00 0.00 0.00 0.00 0.00 0.00 0.00 0.00 0.00 0.00 0.00 0.00 0.00 0.00 0.00 0.00 0.00 0.01 0.01 0.01 0.00
0.00 0.00 0.00 0.00 0.00 0.00 0.00 0.00 0.00 0.00 0.00 0.00 0.00 0.00 0.00 0.00 0.00 0.00 0.00 0.00 0.00 0.00 0.00 0.00 0.00 0.00 0.00 0.00 0.00 0.00 0.00 0.00 0.00 0.00 0.00 0.00 0.00 0.00 0.00 0.01 0.00 0.01 0.01
0.00 0.00 0.00 0.00 0.00 0.00 0.00 0.00 0.00 0.00 0.00 0.00 0.00 0.00 0.00 0.00 0.00 0.00 0.00 0.00 0.00 0.00 0.00 0.00 0.00 0.00 0.00 0.00 0.00 0.00 0.00 0.00 0.00 0.00 0.00 0.00 0.00 0.00 0.00 0.01 0.01 0.00 0.00
0.00 0.00 0.00 0.00 0.00 0.00 0.00 0.00 0.00 0.00 0.00 0.00 0.00 0.00 0.00 0.00 0.00 0.00 0.00 0.00 0.00 0.00 0.00 0.00 0.00 0.00 0.00 0.00 0.00 0.00 0.00 0.00 0.00 0.00 0.00 0.00 0.00 0.00 0.01 0.00 0.00 0.00 0.01
0.00 0.00 0.00 0.00 0.00 0.00 0.00 0.00 0.00 0.00 0.00 0.00 0.00 0.00 0.00 0.00 0.00 0.00 0.00 0.00 0.00 0.00 0.00 0.00 0.00 0.00 0.00 0.00 0.00 0.00 0.01 0.00 0.00 0.00 0.00 0.00 0.00 0.00 0.00 0.00 0.01 0.01 0.00
0.00 0.00 0.00 0.00 0.00 0.00 0.00 0.00 0.00 0.00 0.00 0.00 0.00 0.00 0.00 0.00 0.00 0.00 0.00 0.00 0.00 0.00 0.00 0.00 0.00 0.00 0.00 0.00 0.00 0.00 0.00 0.00 0.00 0.00 0.01 0.01 0.01 0.01 0.01 0.01 0.00 0.00 0.00
MSLP
1004.77 1005.39 1005.89 1006.41 1006.94 1007.67 1008.36 1008.97 1009.32 1009.89 1010.44 1011.15 1011.92 1012.55 1013.10 1013.54 1013.87 1014.23 1014.61 1014.83 1015.01 1015.12 1015.27 1015.62 1015.69 1015.69 1015.92 1015.82 1015.77 1015.80 1015.91 1016.02 1015.43 1014.81 1014.96 1014.88 1015.17 1015.15 1015.10 1015.13 1015.43 1015.53 1015.22
1003.83 1004.71 1005.36 1005.96 1006.46 1007.07 1007.80 1008.46 1008.97 1009.52 1010.03 1010.49 1011.11 1011.75 1012.19 1012.58 1012.97 1013.38 1013.73 1014.01 1014.31 1014.56 1014.61 1014.92 1014.88 1014.90 1015.05 1015.05 1015.11 1015.21 1015.24 1015.13 1015.04 1014.11 1014.65 1014.54 1014.67 1014.52 1014.63 1014.85 1014.83 1014.75 1014.51
1003.08 1003.92 1004.76 1005.38 1005.88 1006.46 1007.06 1007.64 1008.37 1009.04 1009.54 1010.13 1010.62 1011.15 1011.57 1011.93 1012.30 1012.62 1012.98 1013.32 1013.57 1013.78 1013.97 1014.06 1014.07 1014.31 1014.73 1014.74 1014.84 1014.85 1014.47 1014.25 1014.67 1014.53 1014.13 1014.27 1014.48 1014.62 1014.56 1014.47 1014.56 1014.27 1014.13
1002.33 1003.15 1003.95 1004.64 1005.32 1006.04 1006.62 1007.19 1007.82 1008.49 1009.13 1009.64 1010.15 1010.57 1011.11 1011.55 1011.94 1012.18 1012.41 1012.64 1012.93 1013.15 1013.60 1014.82 1015.62 1015.94 1016.19 1015.91 1015.73 1015.17 1015.23 1014.77 1014.96 1014.83 1014.49 1014.65 1015.02 1015.36 1015.39 1015.27 1015.06 1014.96 1014.75
1001.48 1002.40 1003.20 1003.97 1004.75 1005.39 1006.14 1006.83 1007.44 1008.10 1008.78 1009.44 1009.97 1010.37 1010.82 1011.20 1011.84 1012.28 1012.25 1012.43 1013.54 1014.43 1015.43 1016.07 1016.84 1017.17 1017.30 1017.07 1016.68 1016.33 1016.62 1015.92 1015.99 1016.18 1016.09 1016.21 1016.35 1016.36 1016.51 1016.37 1015.86 1015.72 1015.34
1001.01 1001.81 1002.64 1003.41 1004.09 1004.92 1005.65 1006.17 1006.86 1007.61 1008.32 1009.06 1009.60 1010.80 1011.89 1012.97 1013.23 1012.46 1012.68 1013.80 1014.61 1015.24 1016.12 1017.12 1017.66 1017.89 1018.16 1017.53 1017.76 1017.63 1016.73 1017.36 1016.72 1017.18 1017.41 1017.36 1017.57 1017.53 1017.24 1017.04 1016.70 1016.29 1016.10
1000.63 1001.30 1002.17 1003.05 1003.86 1004.74 1005.63 1006.50 1007.30 1008.28 1009.60 1010.92 1011.95 1012.61 1013.61 1014.43 1014.46 1013.98 1014.03 1014.98 1015.73 1016.62 1017.30 1017.51 1018.02 1018.33 1018.21 1018.45 1017.98 1018.99 1018.16 1018.68 1018.10 1018.21 1018.16 1018.30 1018.28 1018.34 1017.97 1017.58 1017.37 1017.05 1016.69
1000.22 1000.86 1001.64 1002.83 1003.84 1004.68 1005.76 1007.52 1008.69 1010.01 1011.24 1012.42 1013.46 1014.21 1014.80 1015.59 1015.64 1015.48 1015.65 1016.31 1016.84 1017.64 1018.29 1018.64 1018.59 1019.13 1018.65 1019.09 1018.78 1018.96 1019.37 1019.34 1019.12 1019.23 1019.36 1019.41 1019.25 1019.01 1018.76 1018.52 1018.15 1017.61 1017.17
1000.30 1000.85 1001.73 1002.54 1004.85 1006.13 1007.53 1008.88 1010.14 1011.00 1012.38 1013.52 1014.50 1015.15 1015.65 1016.30 1016.53 1016.41 1016.45 1017.27 1018.12 1018.77 1019.25 1019.19 1019.61 1019.75 1019.69 1019.58 1019.71 1019.78 1019.57 1019.67 1019.61 1019.57 1019.59 1019.51 1019.36 1019.16 1019.01 1018.77 1018.39 1018.18 1017.60
1001.88 1002.81 1003.40 1004.85 1006.34 1007.84 1009.18 1010.47 1011.59 1012.26 1013.36 1014.63 1015.48 1016.23 1016.53 1016.93 1017.24 1017.31 1017.51 1017.94 1018.29 1019.15 1019.26 1019.94 1020.13 1020.31 1020.34 1020.47 1020.53 1020.52 1020.43 1020.43 1020.00 1019.69 1019.54 1019.32 1019.12 1019.03 1019.24 1019.24 1019.17 1019.03 1018.69
1004.48 1004.82 1005.33 1006.22 1007.78 1009.72 1010.59 1011.93 1012.87 1013.54 1014.37 1015.37 1016.29 1017.34 1017.85 1018.16 1018.36 1018.39 1018.53 1018.53 1018.96 1019.47 1019.88 1020.37 1020.76 1020.93 1020.94 1021.05 1021.08 1021.04 1021.00 1020.82 1020.55 1020.39 1020.18 1019.88 1019.84 1019.94 1020.05 1019.89 1019.80 1019.85 1019.67
1005.74 1006.45 1007.36 1007.97 1008.68 1010.07 1011.57 1013.14 1013.97 1015.11 1015.74 1016.58 1017.22 1018.17 1018.87 1019.28 1019.34 1019.43 1019.46 1019.57 1019.86 1020.10 1020.67 1021.03 1021.23 1021.26 1021.37 1021.45 1021.45 1021.48 1021.43 1021.35 1021.18 1020.93 1020.82 1020.93 1020.94 1020.83 1020.70 1020.52 1020.30 1020.07 1019.92
1006.80 1007.71 1008.63 1009.47 1010.90 1011.47 1011.33 1014.26 1014.83 1015.95 1017.01 1017.61 1018.05 1018.65 1019.44 1020.03 1020.32 1020.38 1020.33 1020.51 1020.63 1020.82 1021.06 1021.32 1021.59 1021.74 1021.78 1021.85 1021.95 1022.00 1022.08 1022.16 1022.12 1022.09 1022.09 1022.11 1021.99 1021.64 1021.25 1021.00 1020.78 1020.45 1020.08
1007.73 1009.15 1010.31 1011.08 1012.64 1013.46 1012.11 1014.68 1015.78 1016.71 1017.81 1018.33 1018.86 1019.72 1020.34 1021.11 1021.45 1021.48 1021.52 1021.50 1021.48 1021.48 1021.43 1021.71 1022.00 1022.19 1022.40 1022.58 1022.53 1022.70 1022.81 1022.90 1023.09 1023.25 1023.17 1022.94 1022.61 1022.23 1022.02 1021.78 1021.42 1020.93 1020.43
1009.37 1010.73 1011.96 1012.85 1013.80 1015.61 1014.86 1016.15 1016.99 1018.24 1019.14 1019.70 1020.10 1020.30 1021.34 1021.96 1022.50 1022.59 1022.35 1022.22 1022.18 1022.07 1022.28 1022.60 1022.98 1023.34 1023.62 1023.71 1023.71 1023.75 1023.80 1023.92 1024.13 1024.10 1023.93 1023.74 1023.46 1023.13 1022.80 1022.45 1021.99 1021.39 1020.87
1010.28 1011.99 1013.12 1014.93 1014.98 1016.57 1017.33 1017.06 1019.12 1020.10 1020.93 1021.31 1021.17 1021.65 1022.51 1022.56 1022.99 1022.87 1022.94 1022.77 1022.70 1022.85 1023.40 1023.89 1024.34 1024.59 1024.72 1024.72 1024.80 1024.93 1025.00 1025.11 1025.07 1024.89 1024.81 1024.63 1024.32 1023.94 1023.46 1022.96 1022.47 1021.94 1021.23
1011.57 1013.04 1014.27 1015.41 1016.65 1017.56 1017.49 1018.93 1020.32 1021.85 1022.33 1022.64 1022.71 1022.94 1023.01 1023.41 1023.40 1023.20 1023.15 1023.47 1023.85 1024.12 1024.55 1025.02 1025.41 1025.61 1025.75 1025.75 1025.90 1026.00 1026.05 1026.07 1025.98 1025.79 1025.59 1025.33 1024.97 1024.49 1024.00 1023.35 1022.75 1022.20 1021.55
1013.11 1013.79 1015.02 1016.12 1016.93 1017.85 1018.94 1020.27 1021.27 1022.03 1023.14 1023.56 1023.64 1023.61 1023.85 1024.15 1024.46 1024.22 1024.10 1024.25 1024.81 1024.99 1025.47 1025.96 1026.32 1026.53 1026.63 1026.65 1026.77 1026.84 1026.91 1026.79 1026.64 1026.41 1026.14 1025.83 1025.45 1024.97 1024.34 1023.77 1023.25 1022.68 1021.91
1014.33 1015.31 1016.03 1016.86 1017.78 1018.73 1019.79 1021.05 1021.91 1022.53 1023.21 1023.61 1023.95 1024.27 1024.41 1024.61 1025.11 1025.47 1025.52 1025.59 1026.04 1026.29 1026.57 1026.86 1027.11 1027.28 1027.47 1027.50 1027.58 1027.57 1027.45 1027.30 1027.06 1026.83 1026.52 1026.22 1025.85 1025.40 1024.93 1024.30 1023.54 1022.91 1022.18
1016.42 1017.10 1017.73 1018.49 1019.28 1020.13 1021.14 1021.81 1022.48 1023.29 1024.19 1024.96 1025.40 1025.68 1025.37 1025.43 1025.90 1026.27 1026.67 1027.00 1027.19 1027.44 1027.63 1027.83 1027.96 1028.09 1028.20 1028.21 1028.11 1027.99 1027.81 1027.63 1027.35 1027.07 1026.80 1026.54 1026.29 1025.97 1025.36 1024.61 1023.86 1023.05 1022.29
1018.60 1019.02 1019.44 1019.81 1020.72 1021.22 1021.85 1022.61 1023.03 1024.03 1024.83 1025.78 1026.29 1026.35 1026.07 1026.25 1026.66 1027.27 1027.67 1028.12 1028.22 1028.29 1028.54 1028.76 1028.89 1028.82 1028.73 1028.59 1028.56 1028.50 1028.33 1028.03 1027.74 1027.42 1027.15 1026.89 1026.64 1026.23 1025.52 1024.77 1024.01 1023.29 1022.48
1020.00 1020.31 1020.85 1021.37 1021.91 1022.23 1023.07 1023.68 1024.12 1024.68 1025.41 1026.14 1026.65 1026.85 1027.07 1027.28 1027.60 1028.13 1028.60 1028.90 1029.03 1029.07 1029.21 1029.52 1029.56 1029.37 1029.13 1029.13 1029.17 1029.06 1028.66 1028.37 1028.07 1027.85 1027.63 1027.34 1026.90 1026.33 1025.63 1024.95 1024.22 1023.34 1022.52
1021.14 1021.58 1022.10 1022.64 1023.12 1023.71 1024.24 1024.82 1025.37 1025.84 1026.26 1026.75 1027.17 1027.70 1028.07 1028.24 1028.41 1029.01 1029.37 1029.64 1029.57 1029.70 1029.77 1029.84 1030.00 1029.81 1029.47 1029.62 1029.44 1029.15 1028.95 1028.62 1028.34 1028.09 1027.86 1027.47 1027.00 1026.44 1025.86 1025.02 1024.16 1023.38 1022.54
1021.98 1022.65 1023.34 1023.87 1024.45 1024.88 1025.47 1026.08 1026.45 1026.53 1026.92 1027.64 1028.08 1028.37 1028.66 1028.96 1029.41 1029.65 1029.80 1029.86 1029.96 1030.08 1030.09 1030.02 1029.87 1029.75 1029.74 1029.64 1029.41 1029.15 1028.71 1028.48 1028.48 1028.33 1027.98 1027.53 1026.88 1026.22 1025.63 1024.97 1024.16 1023.21 1022.31
1023.34 1023.92 1024.46 1024.83 1025.16 1025.66 1026.02 1026.41 1026.87 1027.24 1027.71 1028.28 1028.75 1029.09 1029.48 1029.69 1030.10 1030.12 1029.82 1029.88 1030.24 1030.58 1030.29 1030.02 1029.85 1029.76 1029.64 1029.50 1029.10 1028.67 1028.48 1028.38 1028.02 1027.68 1027.27 1026.81 1026.26 1025.74 1025.21 1024.55 1023.82 1022.92 1022.46
1024.56 1025.01 1025.32 1025.58 1025.91 1026.19 1026.52 1027.12 1027.49 1027.99 1028.70 1029.23 1029.62 1029.97 1030.11 1030.33 1030.74 1030.53 1030.07 1030.33 1030.74 1030.53 1030.16 1030.14 1029.92 1029.83 1029.50 1029.00 1028.60 1028.35 1028.14 1027.78 1027.46 1027.26 1026.84 1026.24 1025.69 1025.15 1024.66 1024.12 1023.60 1022.87 1022.09
Thickness
5641 5636 5633 5629 5624 5619 5615 5612 5611 5608 5606 5602 5598 5594 5591 5590 5589 5587 5584 5582 5583 5583 5584 5580 5580 5579 5576 5577 5575 5572 5570 5566 5569 5575 5569 5566 5559 5555 5552 5548 5540 5536 5536
5645 5638 5633 5629 5626 5622 5617 5614 5611 5608 5605 5603 5600 5596 5595 5593 5591 5587 5585 5585 5584 5583 5583 5578 5579 5578 5574 5574 5572 5569 5566 5565 5564 5568 5560 5558 5550 5547 5543 5536 5530 5527 5526
5648 5641 5634 5629 5626 5623 5621 5619 5614 5610 5607 5603 5600 5596 5594 5594 5592 5591 5589 5586 5585 5582 5578 5578 5577 5575 5573 5569 5565 5563 5563 5560 5552 5549 5551 5543 5536 5529 5526 5521 5516 5515 5513
5650 5643 5635 5631 5626 5622 5619 5617 5613 5609 5605 5602 5599 5597 5594 5592 5590 5590 5589 5586 5582 5580 5576 5563 5554 5550 5547 5547 5547 5549 5545 5545 5538 5535 5534 5527 5515 5509 5504 5500 5497 5493 5490
5652 5645 5639 5633 5628 5624 5619 5614 5611 5606 5602 5598 5595 5594 5592 5590 5587 5582 5583 5580 5571 5561 5551 5544 5535 5531 5527 5526 5528 5528 5519 5521 5514 5506 5501 5495 5490 5486 5479 5475 5474 5468 5467
5651 5644 5640 5635 5630 5624 5618 5615 5611 5607 5603 5598 5596 5585 5576 5567 5564 5571 5569 5559 5551 5545 5536 5525 5518 5514 5508 5510 5505 5501 5503 5496 5492 5482 5475 5470 5462 5456 5453 5449 5446 5444 5443
5649 5646 5640 5634 5628 5622 5617 5611 5606 5598 5585 5573 5566 5561 5553 5547 5547 5551 5549 5539 5532 5523 5515 5511 5504 5499 5496 5490 5489 5477 5478 5469 5467 5460 5454 5445 5438 5431 5429 5426 5420 5417 5415
5648 5646 5642 5634 5627 5622 5613 5592 5581 5574 5564 5555 5547 5540 5535 5529 5529 5530 5527 5519 5512 5504 5496 5490 5488 5479 5479 5472 5469 5462 5452 5445 5441 5434 5426 5418 5412 5407 5402 5398 5395 5393 5389
5645 5641 5638 5634 5610 5598 5586 5575 5566 5559 5548 5539 5531 5526 5523 5517 5515 5514 5511 5502 5492 5484 5477 5475 5467 5461 5457 5453 5446 5439 5434 5426 5419 5412 5404 5397 5390 5385 5379 5375 5371 5364 5363
5621 5615 5610 5599 5588 5576 5566 5558 5549 5544 5534 5524 5517 5511 5508 5504 5500 5498 5493 5486 5480 5471 5465 5455 5449 5442 5436 5429 5422 5415 5409 5401 5398 5392 5385 5379 5373 5366 5357 5350 5342 5334 5328
5588 5588 5585 5579 5568 5554 5548 5538 5532 5526 5520 5512 5503 5494 5489 5485 5481 5478 5474 5470 5464 5456 5448 5439 5430 5422 5415 5407 5400 5394 5387 5381 5376 5368 5362 5355 5348 5338 5328 5320 5311 5301 5292
5570 5567 5562 5557 5555 5543 5532 5520 5514 5505 5500 5493 5488 5479 5471 5466 5463 5459 5455 5451 5444 5438 5428 5418 5410 5404 5396 5389 5381 5373 5367 5360 5352 5345 5337 5327 5317 5308 5298 5289 5280 5270 5258
5554 5549 5543 5538 5526 5523 5525 5502 5498 5489 5480 5475 5472 5465 5456 5448 5443 5439 5435 5429 5423 5417 5410 5401 5391 5383 5377 5369 5361 5353 5344 5335 5327 5316 5306 5296 5285 5275 5266 5256 5245 5232 5223
5537 5527 5519 5515 5503 5496 5507 5488 5481 5473 5464 5459 5453 5442 5435 5426 5420 5416 5411 5405 5401 5396 5391 5382 5371 5361 5353 5345 5337 5327 5319 5309 5298 5285 5275 5264 5254 5242 5228 5214 5203 5191 5180
5512 5503 5494 5488 5481 5466 5474 5464 5457 5447 5440 5434 5430 5426 5413 5405 5397 5392 5388 5383 5377 5373 5365 5357 5347 5335 5325 5317 5308 5299 5289 5278 5265 5253 5241 5229 5216 5203 5187 5172 5157 5146 5133
5493 5482 5474 5459 5461 5450 5444 5445 5430 5422 5414 5407 5405 5399 5390 5385 5377 5373 5366 5362 5355 5349 5340 5330 5318 5308 5299 5291 5280 5269 5258 5244 5232 5218 5203 5188 5173 5159 5145 5130 5117 5106 5098
5472 5462 5454 5446 5436 5429 5429 5418 5406 5393 5386 5381 5379 5375 5371 5363 5358 5354 5349 5340 5332 5324 5314 5304 5293 5282 5272 5264 5251 5238 5224 5210 5196 5180 5164 5148 5132 5118 5105 5095 5086 5077 5070
5448 5445 5436 5427 5421 5413 5404 5394 5385 5377 5365 5360 5358 5354 5348 5340 5333 5330 5327 5321 5309 5302 5292 5280 5268 5257 5245 5233 5220 5206 5190 5175 5159 5143 5127 5111 5097 5086 5076 5067 5059 5052 5047
5427 5420 5415 5409 5403 5395 5387 5378 5370 5363 5354 5347 5340 5334 5329 5323 5315 5308 5303 5296 5286 5277 5266 5255 5242 5229 5215 5202 5187 5172 5157 5141 5124 5108 5094 5081 5069 5060 5050 5043 5039 5033 5030
5401 5396 5392 5386 5379 5372 5364 5359 5352 5342 5333 5323 5317 5312 5311 5307 5297 5289 5280 5270 5260 5250 5239 5226 5213 5200 5186 5171 5156 5140 5124 5108 5094 5081 5069 5058 5047 5036 5029 5025 5022 5021 5020
5375 5371 5368 5366 5358 5354 5348 5340 5335 5325 5317 5307 5301 5297 5295 5288 5278 5266 5255 5243 5233 5222 5209 5196 5183 5170 5156 5141 5124 5108 5094 5081 5070 5059 5048 5038 5027 5018 5013 5011 5011 5011 5011
5357 5355 5350 5345 5340 5337 5327 5322 5319 5314 5305 5296 5287 5280 5272 5264 5255 5243 5230 5218 5208 5197 5184 5169 5155 5141 5127 5111 5096 5082 5071 5059 5049 5039 5028 5018 5011 5006 5003 5002 5003 5004 5005
5342 5338 5333 5327 5322 5317 5312 5305 5299 5292 5286 5277 5268 5258 5249 5240 5231 5218 5207 5196 5185 5173 5159 5144 5128 5114 5101 5087 5074 5063 5053 5043 5033 5023 5013 5005 5000 4996 4994 4996 4999 5000 5001
5329 5322 5316 5310 5304 5298 5291 5283 5278 5274 5266 5255 5245 5236 5227 5217 5204 5195 5186 5176 5163 5148 5134 5120 5106 5093 5081 5069 5059 5049 5040 5031 5021 5010 5002 4997 4993 4991 4991 4993 4995 4999 5002
5310 5304 5298 5293 5288 5282 5277 5271 5262 5254 5245 5234 5224 5214 5204 5195 5184 5175 5166 5155 5140 5125 5113 5101 5088 5077 5066 5056 5049 5041 5031 5022 5014 5007 5000 4995 4993 4991 4992 4994 4996 5000 5000
5291 5286 5282 5278 5272 5267 5261 5251 5244 5235 5223 5212 5202 5192 5184 5173 5161 5154 5145 5131 5117 5107 5096 5084 5074 5063 5055 5048 5041 5032 5024 5017 5010 5003 4998 4995 4994 4995 4995 4996 4997 5000 5003